Regional Weather Roundup
Issued by NWS Jackson, KY

Home | Current Version | Previous Version | Text Only | Print | Product List | Glossary On
Versions: 1 2 3 4 5 6 7 8 9 10 11 12 13 14 15 16 17 18 19 20 21 22 23 24 25 26 27 28 29 30 31 32 33 34 35 36 37 38 39 40 41 42 43 44 45 46 47 48 49
000
ASUS43 KJKL 300010
RWRJKL

EAST KENTUCKY HOURLY WEATHER ROUNDUP
NATIONAL WEATHER SERVICE JACKSON KY
800 PM EDT MON JUN 29 2015

NOTE: "FAIR" INDICATES FEW OR NO CLOUDS BELOW 12,000 FEET WITH
NO SIGNIFICANT WEATHER AND/OR OBSTRUCTIONS TO VISIBILITY.

* THESE REPORTS ARE NOT UNDER NWS QUALITY CONTROL AND MAY NOT
  REPORT WEATHER SUCH AS PRECIPITATION AND FOG.

KYZ079-080-083-085-087-088-110-112-115-119-120-300100
...EASTERN KENTUCKY...

CITY           SKY/WX    TMP DP  RH WIND       PRES   REMARKS
JACKSON        LGT RAIN  68  64  87 VRB5      29.90R FOG
6HR MIN TEMP:  69; 6HR MAX TEMP:  80; 6HR PCP:  0.04;

LONDON         CLOUDY    70  64  81 SW5       29.89S
6HR MIN TEMP:  69; 6HR MAX TEMP:  83; 6HR PCP:  0.60;

SOMERSET*      CLOUDY    68  68 100 W5        29.89F
MONTICELLO*    FOG       68  68 100 CALM      29.93R THUNDER VSB 1
6HR MIN TEMP:  68; 6HR MAX TEMP:  85;

MIDDLESBORO*   MOCLDY    79  65  61 S14G20    29.89S
6HR MIN TEMP:  76; 6HR MAX TEMP:  83;

HARLAN APT*      N/A     77  61  57 CALM      29.89F
HAZARD APT*    PTCLDY    72  64  78 S3        29.88R
BLACK MTN*       N/A     64  61  88 S14         N/A
PIKEVILLE APT* PTCLDY    73  63  68 S6        29.88F
BIG SANDY*     CLOUDY    76  64  65 SW6       29.87R
6HR MIN TEMP:  76; 6HR MAX TEMP:  83;

MOREHEAD APT*  CLOUDY    68  64  88 S6        29.86
$$

KYZ035-036-041-042-044-050-067-078-099-300100
...CENTRAL KENTUCKY...

CITY           SKY/WX    TMP DP  RH WIND       PRES   REMARKS
MT STERLING*   CLOUDY    68  64  88 SW3       29.86S
FLEMING/MASON* MOSUNNY  N/A N/A N/A SW7       29.83R
DANVILLE*      CLOUDY    68  66  94 SW8       29.87S
RICHMOND*      CLOUDY    70  64  83 SW6       29.85F
LEXINGTON      PTSUNNY   72  67  84 SW9       29.83S
6HR MIN TEMP:  65; 6HR MAX TEMP:  80; 6HR PCP:  0.42;

FRANKFORT      PTSUNNY   74  67  78 S7        29.81S
6HR MIN TEMP:  70; 6HR MAX TEMP:  82; 6HR PCP:  0.14;

$$

KYZ091>093-OHZ055-061-077-WVZ005-015-034-035-042-300100
...SOUTHERN OHIO/WEST VIRGINIA...

CITY           SKY/WX    TMP DP  RH WIND       PRES   REMARKS
COVINGTON      PTSUNNY   75  65  70 W13       29.80R
COLUMBUS       CLOUDY    66  63  88 SE7       29.81F
DAYTON         MOSUNNY   70  64  81 NW5       29.82S
WILMINGTON     PTSUNNY   70  64  81 SE5       29.81R
HUNTINGTON     LGT RAIN  69  66  90 NE5       29.84R FOG
CHARLESTON     CLOUDY    77  60  55 S7        29.85R
PINEVILLE*     MOCLDY    70  66  85 MISG      29.98S
BECKLEY        PTCLDY    71  56  58 S7        29.97R
BLUEFIELD      MOCLDY    72  56  57 S6        30.01R
$$

VAZ002-007-008-TNZ017-027-036-066-071-300100
...SOUTHWEST VIRGINIA/EAST TENNESSEE...

CITY           SKY/WX    TMP DP  RH WIND       PRES   REMARKS
WISE*          MOCLDY    70  59  68 S5        29.98S
JONESVILLE*      N/A    N/A N/A N/A MISG        N/A
ABINGDON*      PTCLDY    77  61  56 SW8       29.96F
BRISTOL        PTCLDY    79  60  52 SW6       29.92F
KNOXVILLE      MOCLDY    80  63  55 S14       29.91R
OAK RIDGE      CLOUDY    82  64  54 VRB5      29.92R
CROSSVILLE     MOSUNNY   76  64  66 VRB6      29.96R
NASHVILLE      PTSUNNY   84  70  62 SW7G18    29.86S
$$

...KEY TO REMARKS...
VSB - VISIBILITY IN MILES
WCI - WIND CHILL INDEX
HX  - HEAT INDEX

$$


USA.gov is the U.S. government's official web portal to all federal, state and local government web resources and services.